CW7395 Weather Reports


time (UTC)temp
C
wind
direction
speed
KPH
gust
KPH
rain 1hr
cm
rain 24hr
cm
rain mn
cm
humidity
%
barometer
mb
20260507124014 11 0 0.0 0.0 0.00 0.00 0.00 91 1018.9
20260507123513 11 0 0.0 0.0 0.00 0.00 0.00 91 1018.8
20260507123037 11 0 0.0 0.0 0.00 0.00 0.00 91 1018.9
20260507122512 11 0 0.0 4.8 0.00 0.00 0.00 91 1018.9
20260507122016 11 0 0.0 4.8 0.00 0.00 0.00 91 1018.9
20260507121531 11 0 0.0 1.6 0.00 0.00 0.00 91 1018.9
20260507121014 11 0 0.0 1.6 0.00 0.00 0.00 91 1019.0
20260507120513 11 0 0.0 0.0 0.00 0.00 0.00 91 1019.1
20260507120036 11 0 0.0 0.0 0.00 0.00 0.00 90 1019.1
20260507115513 11 0 0.0 0.0 0.00 0.00 0.00 91 1019.1
20260507115014 11 0 0.0 0.0 0.00 0.00 0.00 91 1019.1
20260507114533 11 0 0.0 4.8 0.00 0.00 0.00 90 1019.2
20260507114014 11 0 0.0 4.8 0.00 0.00 0.00 90 1019.2
20260507113517 11 0 0.0 0.0 0.00 0.00 0.00 91 1019.2
20260507113033 11 0 0.0 4.8 0.00 0.00 0.00 91 1019.2
20260507112514 11 0 0.0 4.8 0.00 0.00 0.00 90 1019.2
20260507112013 11 0 0.0 4.8 0.00 0.00 0.00 91 1019.2
20260507111532 11 0 0.0 4.8 0.00 0.00 0.00 91 1019.2
20260507111015 11 0 0.0 4.8 0.00 0.00 0.00 91 1019.2
20260507110513 11 0 0.0 0.0 0.00 0.00 0.00 91 1019.3
20260507110033 11 0 0.0 0.0 0.00 0.00 0.00 91 1019.2
20260507105513 11 0 0.0 0.0 0.00 0.00 0.00 91 1019.1
20260507105014 11 0 0.0 0.0 0.00 0.00 0.00 91 1019.1
20260507104535 11 0 0.0 0.0 0.00 0.00 0.00 91 1019.2
20260507104015 11 0 0.0 0.0 0.00 0.00 0.00 91 1019.2
20260507103516 11 0 0.0 0.0 0.00 0.00 0.00 90 1019.3
20260507103030 11 0 0.0 0.0 0.00 0.00 0.00 90 1019.2
20260507102513 11 0 0.0 1.6 0.00 0.00 0.00 90 1019.2
20260507102013 11 0 0.0 1.6 0.00 0.00 0.00 90 1019.2
20260507101539 11 0 0.0 3.2 0.00 0.00 0.00 90 1019.2
20260507101018 11 0 0.0 3.2 0.00 0.00 0.00 90 1019.2
20260507100514 11 0 0.0 0.0 0.00 0.00 0.00 90 1019.2
20260507100044 11 0 0.0 0.0 0.00 0.00 0.00 90 1019.2
20260507095516 11 0 0.0 0.0 0.00 0.00 0.00 90 1019.2
20260507095015 11 0 0.0 0.0 0.00 0.00 0.00 90 1019.2
20260507094532 11 0 0.0 0.0 0.00 0.00 0.00 90 1019.2
20260507094013 11 0 0.0 0.0 0.00 0.00 0.00 90 1019.3
20260507093515 11 0 0.0 4.8 0.00 0.00 0.00 90 1019.3
20260507093032 11 0 0.0 4.8 0.00 0.00 0.00 90 1019.3
20260507092515 11 0 0.0 6.4 0.00 0.00 0.00 90 1019.3
20260507092014 11 0 0.0 6.4 0.00 0.00 0.00 90 1019.3
20260507091532 11 302 0.0 6.4 0.00 0.00 0.00 90 1019.5
20260507091015 11 0 0.0 0.0 0.00 0.00 0.00 90 1019.4
20260507090519 11 0 0.0 6.4 0.00 0.00 0.00 90 1019.5
20260507090033 11 0 0.0 6.4 0.00 0.00 0.00 90 1019.5
20260507085513 11 316 0.0 4.8 0.00 0.00 0.00 90 1019.6
20260507085015 11 0 0.0 4.8 0.00 0.00 0.00 90 1019.6
20260507084530 11 0 0.0 4.8 0.00 0.00 0.00 90 1019.6
20260507084016 11 0 0.0 6.4 0.00 0.00 0.00 90 1019.6
20260507083516 11 0 0.0 6.4 0.00 0.00 0.00 90 1019.6
20260507083035 11 312 0.0 4.8 0.00 0.00 0.00 90 1019.8
20260507082516 11 0 0.0 0.0 0.00 0.00 0.00 90 1019.8
20260507082015 11 0 0.0 0.0 0.00 0.00 0.00 90 1019.8
20260507081530 11 0 0.0 0.0 0.00 0.00 0.00 90 1019.8
20260507081013 11 0 0.0 0.0 0.00 0.00 0.00 89 1019.8
20260507080516 12 0 0.0 0.0 0.00 0.00 0.00 89 1019.9
20260507080031 12 0 0.0 0.0 0.00 0.00 0.00 89 1019.8
20260507075514 12 0 0.0 0.0 0.00 0.00 0.00 89 1019.8
20260507075015 12 0 0.0 0.0 0.00 0.00 0.00 89 1019.9
20260507074530 12 0 0.0 0.0 0.00 0.00 0.00 89 1019.9
20260507074012 12 0 0.0 0.0 0.00 0.00 0.00 89 1020.0
20260507073512 12 0 0.0 0.0 0.00 0.00 0.00 89 1020.0
20260507073032 12 0 0.0 0.0 0.00 0.00 0.00 89 1020.0
20260507072516 12 0 0.0 0.0 0.00 0.00 0.00 89 1020.0
20260507072015 12 0 0.0 0.0 0.00 0.00 0.00 89 1020.0
20260507071532 12 0 0.0 0.0 0.00 0.00 0.00 89 1020.0
20260507071013 12 0 0.0 0.0 0.00 0.00 0.00 89 1020.0
20260507070519 12 0 0.0 0.0 0.00 0.00 0.00 89 1020.0
20260507070037 12 0 0.0 0.0 0.00 0.00 0.00 89 1019.9
20260507065519 12 0 0.0 0.0 0.00 0.00 0.00 89 1019.9
20260507065013 12 0 0.0 0.0 0.00 0.00 0.00 89 1019.9
20260507064538 12 0 0.0 0.0 0.00 0.00 0.00 89 1019.9
20260507064013 12 0 0.0 0.0 0.00 0.00 0.00 89 1019.9
20260507063516 12 0 0.0 0.0 0.00 0.00 0.00 89 1019.9
20260507063034 12 0 0.0 0.0 0.00 0.00 0.00 89 1019.8
20260507062516 12 0 0.0 0.0 0.00 0.00 0.00 89 1019.9
20260507062016 12 0 0.0 0.0 0.00 0.00 0.00 89 1020.0
20260507061530 12 0 0.0 0.0 0.00 0.00 0.00 89 1020.0
20260507061014 12 0 0.0 0.0 0.00 0.00 0.00 89 1020.0
20260507060520 12 0 0.0 0.0 0.00 0.00 0.00 88 1020.0
20260507060030 12 0 0.0 0.0 0.00 0.00 0.00 88 1019.9
20260507055513 12 0 0.0 0.0 0.00 0.00 0.00 88 1019.9
20260507055014 12 0 0.0 0.0 0.00 0.00 0.00 88 1019.9
20260507054538 12 0 0.0 0.0 0.00 0.00 0.00 88 1019.9
20260507054012 12 0 0.0 0.0 0.00 0.00 0.00 88 1019.9
20260507053513 12 0 0.0 0.0 0.00 0.00 0.00 87 1020.0
20260507053030 12 0 0.0 0.0 0.00 0.00 0.00 88 1020.1
20260507052515 12 0 0.0 0.0 0.00 0.00 0.00 87 1020.0
20260507052012 12 0 0.0 0.0 0.00 0.00 0.00 87 1020.0
20260507051532 12 0 0.0 0.0 0.00 0.00 0.00 87 1020.1
20260507051015 12 0 0.0 1.6 0.00 0.00 0.00 87 1020.1
20260507050516 12 0 0.0 1.6 0.00 0.00 0.00 87 1020.1
20260507050038 12 0 0.0 0.0 0.00 0.00 0.00 87 1020.1
20260507045515 12 0 0.0 0.0 0.00 0.00 0.00 86 1020.1
20260507045017 12 0 0.0 0.0 0.00 0.00 0.00 86 1020.1
20260507044536 13 0 0.0 1.6 0.00 0.00 0.00 86 1020.1
20260507044013 13 0 0.0 1.6 0.00 0.00 0.00 86 1020.0
20260507043514 13 0 0.0 0.0 0.00 0.00 0.00 86 1020.0
20260507043034 13 0 0.0 0.0 0.00 0.00 0.00 85 1020.0
20260507042513 13 0 0.0 0.0 0.00 0.00 0.00 85 1020.0
20260507042015 13 0 0.0 0.0 0.00 0.00 0.00 85 1019.9
20260507041540 13 0 0.0 0.0 0.00 0.00 0.00 85 1019.7
20260507041013 13 0 0.0 0.0 0.00 0.00 0.00 85 1019.8
20260507040516 13 0 0.0 0.0 0.00 0.00 0.00 84 1019.8
20260507040034 13 0 0.0 0.0 0.00 0.00 0.00 84 1019.7
20260507035513 13 0 0.0 0.0 0.00 0.00 0.00 84 1019.6
20260507035012 13 0 0.0 0.0 0.00 0.00 0.00 84 1019.7
20260507034533 13 0 0.0 0.0 0.00 0.00 0.00 83 1019.7
20260507034016 14 0 0.0 0.0 0.00 0.00 0.00 83 1019.5
20260507033518 14 0 0.0 0.0 0.00 0.00 0.00 82 1019.5
20260507033034 14 0 0.0 0.0 0.00 0.00 0.00 82 1019.5
20260507032513 14 0 0.0 0.0 0.00 0.00 0.00 81 1019.5
20260507032013 15 0 0.0 0.0 0.00 0.00 0.00 81 1019.4
20260507031532 15 0 0.0 0.0 0.00 0.00 0.00 80 1019.4
20260507031015 15 0 0.0 3.2 0.00 0.00 0.00 80 1019.2
20260507030516 15 0 0.0 3.2 0.00 0.00 0.00 79 1019.2
20260507030032 15 0 0.0 1.6 0.00 0.00 0.00 79 1019.2
20260507025515 15 0 0.0 0.0 0.00 0.00 0.00 78 1019.0
20260507025012 16 0 0.0 0.0 0.00 0.00 0.00 77 1018.9
20260507024532 16 0 0.0 0.0 0.00 0.00 0.00 77 1018.9
20260507024014 16 0 0.0 0.0 0.00 0.00 0.00 76 1018.7
20260507023520 16 0 0.0 0.0 0.00 0.00 0.00 75 1018.8
20260507023039 16 0 0.0 0.0 0.00 0.00 0.00 75 1018.7
20260507022516 17 0 0.0 0.0 0.00 0.00 0.00 74 1018.7
20260507022018 17 0 0.0 0.0 0.00 0.00 0.00 74 1018.7
20260507021530 17 0 0.0 8.0 0.00 0.00 0.00 73 1018.6
20260507021020 17 0 0.0 8.0 0.00 0.00 0.00 72 1018.6
20260507020516 18 0 0.0 6.4 0.00 0.00 0.00 72 1018.6
20260507020030 18 0 0.0 0.0 0.00 0.00 0.00 71 1018.6
20260507015516 18 0 0.0 0.0 0.00 0.00 0.00 71 1018.5
20260507015012 18 0 0.0 0.0 0.00 0.00 0.00 70 1018.5
20260507014540 18 0 0.0 0.0 0.00 0.00 0.00 70 1018.4
20260507014014 18 0 0.0 0.0 0.00 0.00 0.00 70 1018.4
20260507013518 18 0 0.0 4.8 0.00 0.00 0.00 69 1018.3
20260507013029 19 0 0.0 6.4 0.00 0.00 0.00 69 1018.3
20260507012515 19 0 0.0 8.0 0.00 0.00 0.00 68 1018.3
20260507012012 19 0 0.0 9.7 0.00 0.00 0.00 67 1018.3
20260507011532 20 0 1.6 9.7 0.00 0.00 0.00 67 1018.4
20260507011012 20 57 0.0 11.3 0.00 0.00 0.00 67 1018.3
20260507010515 20 0 3.2 11.3 0.00 0.00 0.00 65 1018.3
20260507010032 20 0 1.6 14.5 0.00 0.00 0.00 65 1018.2
20260507005513 20 0 1.6 14.5 0.00 0.00 0.00 65 1018.1
20260507005013 21 37 3.2 14.5 0.00 0.00 0.00 63 1018.0
20260507004536 21 71 0.0 11.3 0.00 0.00 0.00 64 1018.1
20260507004016 21 0 0.0 11.3 0.00 0.00 0.00 64 1018.1
20260507003514 21 0 0.0 12.9 0.00 0.00 0.00 62 1017.9
20260507003033 21 0 1.6 12.9 0.00 0.00 0.00 62 1017.9
20260507002513 22 45 1.6 14.5 0.00 0.00 0.00 61 1017.8
20260507002016 22 0 0.0 14.5 0.00 0.00 0.00 61 1017.7
20260507001531 22 27 1.6 12.9 0.00 0.00 0.00 60 1017.7
20260507001012 22 58 3.2 12.9 0.00 0.00 0.00 60 1017.7
20260507000512 22 102 0.0 6.4 0.00 0.00 0.00 60 1017.7
20260507000031 22 53 0.0 6.4 0.00 0.00 0.00 60 1017.6
20260506235515 22 0 0.0 6.4 0.00 0.00 0.00 60 1017.7
20260506235012 22 0 0.0 12.9 0.00 0.00 0.00 60 1017.6
20260506234537 22 0 0.0 12.9 0.00 0.00 0.00 60 1017.6
20260506234016 22 306 1.6 11.3 0.00 0.00 0.00 60 1017.7
20260506233513 23 47 1.6 11.3 0.00 0.00 0.00 59 1017.7
20260506233029 23 298 1.6 8.0 0.00 0.00 0.00 58 1017.7
20260506232512 23 314 0.0 8.0 0.00 0.00 0.00 59 1017.7
20260506232013 23 0 1.6 11.3 0.00 0.00 0.00 59 1017.8
20260506231544 23 329 0.0 14.5 0.00 0.00 0.00 59 1017.7
20260506231013 23 298 0.0 14.5 0.00 0.00 0.00 58 1017.8
20260506230516 23 329 1.6 14.5 0.00 0.00 0.00 58 1017.9
20260506230050 23 0 1.6 9.7 0.00 0.00 0.00 58 1017.8
20260506225512 23 0 1.6 14.5 0.00 0.00 0.00 57 1017.9
20260506225016 23 0 1.6 16.1 0.00 0.00 0.00 57 1017.9
20260506224535 23 271 3.2 16.1 0.00 0.00 0.00 56 1017.9
20260506224012 24 0 0.0 17.7 0.00 0.00 0.00 56 1017.9
20260506223516 24 0 0.0 17.7 0.00 0.00 0.00 56 1017.9
20260506223044 25 318 4.8 17.7 0.00 0.00 0.00 53 1018.0
20260506222514 25 40 1.6 14.5 0.00 0.00 0.00 54 1017.9
20260506222015 25 0 1.6 14.5 0.00 0.00 0.00 52 1017.9
20260506221532 25 0 0.0 3.2 0.00 0.00 0.00 52 1018.0
20260506221014 25 0 0.0 3.2 0.00 0.00 0.00 52 1017.9
20260506220518 25 0 0.0 4.8 0.00 0.00 0.00 51 1018.0
20260506220031 25 0 0.0 4.8 0.00 0.00 0.00 52 1018.2
20260506215518 25 0 0.0 6.4 0.00 0.00 0.00 50 1018.2
20260506215014 26 0 0.0 6.4 0.00 0.00 0.00 49 1018.2
20260506214532 26 74 0.0 6.4 0.00 0.00 0.00 50 1018.3
20260506214014 26 0 0.0 6.4 0.00 0.00 0.00 49 1018.4
20260506213516 25 0 0.0 9.7 0.00 0.00 0.00 52 1018.4
20260506213030 25 0 0.0 14.5 0.00 0.00 0.00 53 1018.5
20260506212512 25 169 3.2 14.5 0.00 0.00 0.00 52 1018.5
20260506212013 25 303 3.2 14.5 0.00 0.00 0.00 50 1018.6
20260506211547 25 0 0.0 11.3 0.00 0.00 0.00 51 1018.6
20260506211015 26 304 0.0 11.3 0.00 0.00 0.00 49 1018.6
20260506210512 26 0 0.0 8.0 0.00 0.00 0.00 47 1018.6
20260506210035 26 0 0.0 4.8 0.00 0.00 0.00 46 1018.7
20260506205515 26 0 0.0 0.0 0.00 0.00 0.00 48 1018.8
20260506205013 26 0 0.0 1.6 0.00 0.00 0.00 48 1018.8
20260506204531 25 0 0.0 1.6 0.00 0.00 0.00 47 1018.8
20260506204013 25 0 0.0 6.4 0.00 0.00 0.00 49 1018.9
20260506203514 24 0 0.0 6.4 0.00 0.00 0.00 50 1018.9
20260506203032 24 217 0.0 6.4 0.00 0.00 0.00 52 1018.9
20260506202513 24 179 0.0 3.2 0.00 0.00 0.00 50 1019.2
20260506202014 23 0 0.0 3.2 0.00 0.00 0.00 52 1019.3
20260506201535 23 0 0.0 8.0 0.00 0.00 0.00 50 1019.4
20260506201013 23 0 0.0 8.0 0.00 0.00 0.00 52 1019.5
20260506200512 23 0 0.0 11.3 0.00 0.00 0.00 56 1019.5
20260506200029 23 63 1.6 11.3 0.00 0.00 0.00 55 1019.5
20260506195512 23 0 0.0 6.4 0.00 0.00 0.00 54 1019.6
20260506195014 23 0 0.0 6.4 0.00 0.00 0.00 53 1019.7
20260506194531 23 0 0.0 3.2 0.00 0.00 0.00 52 1019.7
20260506194012 23 0 0.0 3.2 0.00 0.00 0.00 53 1019.8
20260506193512 23 0 0.0 1.6 0.00 0.00 0.00 54 1019.8
20260506193036 23 0 0.0 12.9 0.00 0.00 0.00 52 1019.8
20260506192516 23 0 0.0 12.9 0.00 0.00 0.00 54 1019.9
20260506192014 22 0 0.0 6.4 0.00 0.00 0.00 55 1019.9
20260506191530 22 0 0.0 4.8 0.00 0.00 0.00 57 1019.9
20260506191016 22 0 0.0 4.8 0.00 0.00 0.00 55 1019.9
20260506190516 22 0 0.0 4.8 0.00 0.00 0.00 56 1020.0
20260506190031 22 0 0.0 0.0 0.00 0.00 0.00 57 1020.0
20260506185513 21 0 0.0 0.0 0.00 0.00 0.00 57 1020.0
20260506185018 21 0 0.0 6.4 0.00 0.00 0.00 57 1020.1
20260506184531 21 0 0.0 6.4 0.00 0.00 0.00 60 1020.1
20260506184016 21 0 0.0 0.0 0.00 0.00 0.00 59 1020.2
20260506183514 21 0 0.0 0.0 0.00 0.00 0.00 58 1020.2
20260506183041 21 0 0.0 6.4 0.00 0.00 0.00 59 1020.3
20260506182512 20 0 0.0 6.4 0.00 0.00 0.00 61 1020.2
20260506182015 20 0 0.0 6.4 0.00 0.00 0.00 62 1020.2
20260506181532 20 63 1.6 9.7 0.00 0.00 0.00 61 1020.3
20260506181014 20 35 1.6 9.7 0.00 0.00 0.00 60 1020.3
20260506180514 20 0 0.0 4.8 0.00 0.00 0.00 60 1020.4
20260506180030 20 0 0.0 0.0 0.00 0.00 0.00 63 1020.4
20260506175517 20 0 0.0 0.0 0.00 0.00 0.00 64 1020.4
20260506175013 19 0 0.0 9.7 0.00 0.00 0.00 65 1020.4
20260506174531 19 0 1.6 9.7 0.00 0.00 0.00 61 1020.4
20260506174013 19 43 0.0 3.2 0.00 0.00 0.00 65 1020.3
20260506173513 19 0 0.0 3.2 0.00 0.00 0.00 64 1020.5
20260506173031 18 0 0.0 4.8 0.00 0.00 0.00 66 1020.5
20260506172513 18 0 0.0 4.8 0.00 0.00 0.00 67 1020.4
20260506172014 17 0 0.0 0.0 0.00 0.00 0.00 69 1020.5
20260506171533 17 0 0.0 4.8 0.00 0.00 0.00 69 1020.5
20260506171017 17 0 0.0 4.8 0.00 0.00 0.00 69 1020.6
20260506170515 17 0 0.0 0.0 0.00 0.00 0.00 67 1020.6
20260506170036 17 0 0.0 1.6 0.00 0.00 0.00 68 1020.6
20260506165514 17 0 0.0 1.6 0.00 0.00 0.00 69 1020.7
20260506165014 17 0 0.0 6.4 0.00 0.00 0.00 71 1020.7
20260506164531 17 0 0.0 6.4 0.00 0.00 0.00 69 1020.7
20260506164021 17 0 0.0 0.0 0.00 0.00 0.00 70 1020.7
20260506163513 16 0 0.0 0.0 0.00 0.00 0.00 72 1020.6
20260506163030 16 0 0.0 0.0 0.00 0.00 0.00 73 1020.8
20260506162513 16 0 0.0 0.0 0.00 0.00 0.00 76 1020.8
20260506162018 15 0 0.0 0.0 0.00 0.00 0.00 77 1020.7
20260506161533 15 0 0.0 0.0 0.00 0.00 0.00 78 1020.7
20260506161018 15 0 0.0 0.0 0.00 0.00 0.00 79 1020.8
20260506160515 15 0 0.0 0.0 0.00 0.00 0.00 81 1020.9
20260506160034 14 0 0.0 0.0 0.00 0.00 0.00 81 1020.9
20260506155514 14 0 0.0 0.0 0.00 0.00 0.00 80 1020.9
20260506155013 14 0 0.0 0.0 0.00 0.00 0.00 81 1020.9
20260506154534 14 0 0.0 0.0 0.00 0.00 0.00 80 1020.9
20260506154013 14 0 0.0 0.0 0.00 0.00 0.00 81 1021.0
20260506153513 14 0 0.0 0.0 0.00 0.00 0.00 80 1020.9
20260506153029 14 0 0.0 0.0 0.00 0.00 0.00 82 1020.9
20260506152513 14 0 0.0 0.0 0.00 0.00 0.00 81 1020.8
20260506152015 13 0 0.0 0.0 0.00 0.00 0.00 83 1020.8
20260506151533 13 0 0.0 0.0 0.00 0.00 0.00 84 1020.9
20260506151015 13 0 0.0 0.0 0.00 0.00 0.00 84 1020.8
20260506150514 13 0 0.0 0.0 0.00 0.00 0.00 85 1020.9
20260506150030 13 0 0.0 0.0 0.00 0.00 0.00 86 1020.9
20260506145514 13 0 0.0 0.0 0.00 0.00 0.00 85 1020.9
20260506145013 13 0 0.0 0.0 0.00 0.00 0.00 86 1020.9
20260506144536 12 0 0.0 0.0 0.00 0.00 0.00 86 1021.0
20260506144014 12 0 0.0 0.0 0.00 0.00 0.00 87 1021.0
20260506143514 12 0 0.0 0.0 0.00 0.00 0.00 87 1021.0
20260506143034 12 0 0.0 0.0 0.00 0.00 0.00 88 1021.0
20260506142518 12 0 0.0 0.0 0.00 0.00 0.00 89 1021.0
20260506142017 11 0 0.0 0.0 0.00 0.00 0.00 90 1020.9
20260506141533 11 0 0.0 0.0 0.00 0.00 0.00 90 1020.9
20260506141015 11 0 0.0 0.0 0.00 0.00 0.00 90 1021.0
20260506140515 11 0 0.0 0.0 0.00 0.00 0.00 90 1020.9
20260506140032 11 0 0.0 0.0 0.00 0.00 0.00 90 1020.8
20260506135515 11 0 0.0 0.0 0.00 0.00 0.00 90 1020.7
20260506135014 11 0 0.0 0.0 0.00 0.00 0.00 90 1020.6
20260506134533 11 0 0.0 0.0 0.00 0.00 0.00 90 1020.5
20260506134014 11 0 0.0 0.0 0.00 0.00 0.00 90 1020.5
20260506133514 11 0 0.0 0.0 0.00 0.00 0.00 90 1020.5
20260506133033 11 0 0.0 0.0 0.00 0.00 0.00 90 1020.4
20260506132514 11 0 0.0 0.0 0.00 0.00 0.00 90 1020.3
20260506132015 11 0 0.0 0.0 0.00 0.00 0.00 90 1020.3
20260506131534 11 0 0.0 0.0 0.00 0.00 0.00 90 1020.2
20260506131013 11 0 0.0 0.0 0.00 0.00 0.00 90 1020.2
20260506130517 11 0 0.0 0.0 0.00 0.00 0.00 90 1020.1
20260506130030 11 0 0.0 0.0 0.00 0.00 0.00 90 1020.2
20260506125515 11 0 0.0 0.0 0.00 0.00 0.00 90 1020.1
20260506125013 11 0 0.0 0.0 0.00 0.00 0.00 90 1020.1
20260506124530 11 0 0.0 0.0 0.00 0.00 0.00 90 1020.1